This is the latest recevied weather packets stored in our database for station/object N8BAP. If no packets are shown the sender has not sent any weather packets the latest 1 day(s).
| Time | Temp. | Humidity | Pressure | Rain* | Wind** | Luminosity | Snow |
|---|---|---|---|---|---|---|---|
| 1778046476 | 14.44° C | 96% | 1011.5 hPa | 3.05 mm | - | 0 W/m² | - |
| 1778046173 | 14.44° C | 96% | 1011.3 hPa | 0 mm | - | 0 W/m² | - |
| 1778045266 | 13.89° C | 96% | 1011.6 hPa | 1.78 mm | - | 0 W/m² | - |
| 1778044661 | 13.89° C | 96% | 1011.6 hPa | 4.32 mm | - | 0 W/m² | - |
| 1778043449 | 13.89° C | 96% | 1012.2 hPa | 0 mm | - | 0 W/m² | - |
| 1778043146 | 13.89° C | 96% | 1012 hPa | 0 mm | - | 0 W/m² | - |
| 1778042541 | 13.89° C | 96% | 1011.7 hPa | 0 mm | - | 0 W/m² | - |
| 1778042238 | 13.89° C | 96% | 1011.6 hPa | 0 mm | - | 0 W/m² | - |
| 1778041936 | 13.89° C | 96% | 1011.9 hPa | 0 mm | - | 0 W/m² | - |
| 1778041634 | 13.89° C | 96% | 1011.6 hPa | 0 mm | - | 0 W/m² | - |
| 1778041333 | 13.89° C | 95% | 1011.9 hPa | 0 mm | - | 0 W/m² | - |
| 1778041030 | 13.89° C | 95% | 1011.8 hPa | 0 mm | - | 0 W/m² | - |
| 1778040727 | 13.89° C | 95% | 1011.7 hPa | 0 mm | - | 0 W/m² | - |
| 1778040121 | 14.44° C | 95% | 1011.9 hPa | 0 mm | - | 0 W/m² | - |
| 1778039818 | 14.44° C | 95% | 1012.2 hPa | 0 mm | - | 0 W/m² | - |
| 1778039515 | 14.44° C | 95% | 1012.2 hPa | 0 mm | - | 0 W/m² | - |
| 1778038909 | 14.44° C | 95% | 1012.2 hPa | 0 mm | - | 0 W/m² | - |
| 1778038606 | 14.44° C | 95% | 1012 hPa | 0 mm | - | 0 W/m² | - |
| 1778038303 | 14.44° C | 95% | 1012.4 hPa | 0 mm | - | 0 W/m² | - |
| 1778038000 | 14.44° C | 95% | 1012.2 hPa | 0 mm | - | 0 W/m² | - |
| 1778037697 | 14.44° C | 95% | 1012.3 hPa | 0 mm | - | 0 W/m² | - |
| 1778037394 | 14.44° C | 94% | 1012.8 hPa | 0 mm | - | 0 W/m² | - |
| 1778037091 | 14.44° C | 94% | 1012.8 hPa | 1.27 mm | - | 0 W/m² | - |
| 1778036790 | 14.44° C | 94% | 1012.8 hPa | 1.27 mm | - | 0 W/m² | - |
| 1778036486 | 14.44° C | 94% | 1012.8 hPa | 0 mm | - | 0 W/m² | - |
* Rain latest hour (hover to see other rain measurements)
** Current wind speed in m/s (hover to see current wind gust speed)